Wind_Speed
36 35 34 32 31 31 31 31 31 30 29 30 31 32 33 33 33 33 33 33 33 33 33 32 31 29 26 24 23 24 25 26 28 30 31 29 27 26 25 25 25 27 30 31 32 34 36 37 38 39 39 36 33 32 33 34 36 37 39 40 42 44 46
35 35 33 31 31 31 31 32 32 31 30 30 31 32 33 34 34 34 34 34 34 34 33 32 31 29 26 24 23 24 25 26 28 29 29 28 27 25 23 23 24 25 27 29 31 33 36 38 38 39 39 37 34 33 33 33 34 34 36 37 38 39 41
33 32 31 31 30 31 31 31 31 31 31 31 31 32 32 32 32 32 33 32 32 32 32 31 30 28 27 26 26 26 26 26 27 27 27 27 25 23 22 21 22 23 24 26 28 29 31 34 35 36 37 35 34 33 33 31 32 33 33 34 36 38 38
32 31 30 29 29 29 29 30 29 29 29 29 29 30 30 30 30 30 31 31 31 31 32 31 30 29 29 29 29 29 29 28 27 26 26 25 25 24 23 22 23 23 24 25 26 27 28 29 30 31 32 32 31 31 31 30 30 31 31 31 32 34 36
31 30 30 29 28 28 28 28 28 28 27 26 26 27 27 27 27 27 28 28 29 29 30 30 30 31 31 32 32 33 33 32 30 29 28 27 27 27 26 25 25 25 25 25 26 26 27 27 27 28 29 30 30 29 29 30 29 29 29 29 29 31 32
31 31 30 29 29 28 28 29 29 28 27 27 27 26 26 26 26 26 26 26 26 26 26 27 28 30 32 33 34 35 36 36 35 33 31 31 31 31 30 29 28 27 27 27 27 27 27 27 27 28 28 29 29 30 30 30 30 29 28 28 28 28 30
32 32 31 30 30 30 29 29 29 29 29 29 29 28 28 27 27 27 27 26 26 25 25 25 26 28 30 32 34 36 37 39 39 39 38 37 37 36 35 34 33 32 31 30 30 29 28 28 27 28 29 30 30 30 31 31 31 31 30 29 28 28 28
32 32 33 32 32 31 29 29 29 30 31 31 31 31 30 30 30 29 29 28 27 26 26 26 26 27 29 30 32 33 35 37 39 41 41 42 42 41 39 38 37 36 35 34 33 32 31 30 29 29 30 31 32 32 33 33 32 32 32 31 30 29 28
34 34 35 35 35 33 31 30 30 31 32 32 33 33 33 32 32 31 31 30 29 28 28 28 29 31 31 32 32 33 33 34 36 38 40 41 42 42 41 40 39 38 37 36 35 34 34 33 32 31 32 33 34 35 35 34 34 33 33 33 32 31 29
37 37 37 38 38 38 35 33 33 33 34 35 35 35 35 35 35 35 34 34 33 32 31 31 32 32 33 34 34 34 34 34 34 36 38 40 41 42 42 42 41 39 39 38 37 36 35 35 34 34 34 34 35 36 37 37 36 36 35 35 33 32 31
41 40 39 39 40 40 39 38 37 37 36 36 37 37 37 37 37 37 37 37 36 36 36 36 35 35 35 35 35 36 36 36 36 36 36 37 39 39 40 40 40 40 39 39 38 37 37 37 37 36 35 35 35 35 37 38 39 39 39 38 36 35 34
41 39 38 38 39 42 43 43 43 42 40 39 39 39 38 38 38 38 38 38 38 38 38 38 39 39 38 38 37 37 38 38 39 39 38 38 38 38 38 39 40 40 40 39 38 38 38 39 39 38 38 37 36 35 36 37 38 39 40 40 39 38 37
45 43 41 40 40 41 44 47 47 46 44 43 43 42 41 40 40 40 39 39 40 40 41 41 41 41 41 40 40 40 40 40 40 41 41 41 40 40 39 39 40 40 41 41 40 40 40 40 40 40 39 39 38 38 37 38 38 38 39 40 40 40 40
52 51 49 47 46 44 44 47 50 50 48 47 46 45 45 44 44 44 43 42 43 43 43 43 43 43 43 43 43 43 43 43 42 42 43 43 42 42 42 42 42 42 43 43 43 43 42 42 42 42 41 41 41 41 40 41 41 41 40 40 41 41 42
56 54 53 53 54 52 49 48 50 52 52 51 50 49 48 47 47 47 46 46 46 46 45 45 45 46 46 46 45 45 44 44 44 43 43 43 43 44 45 46 46 46 46 45 45 44 43 43 43 44 43 43 43 44 44 44 44 44 44 43 43 42 42
57 56 55 54 56 57 56 53 51 51 51 51 51 52 52 51 51 50 49 48 48 49 49 48 48 48 48 47 47 46 45 44 44 44 44 45 46 46 47 48 49 49 49 48 47 46 45 45 45 46 46 46 47 47 48 48 48 48 48 48 47 46 45
57 56 55 54 56 58 58 56 54 53 52 51 51 52 53 54 53 53 53 52 51 51 51 50 49 48 48 48 48 48 48 47 46 45 45 45 46 47 48 48 49 50 50 50 50 49 49 48 48 48 49 50 50 51 52 52 52 52 52 53 53 53 52
56 56 57 57 58 60 60 58 57 56 55 54 53 52 52 53 54 54 54 53 52 51 50 50 49 49 49 50 50 51 52 51 50 49 48 47 46 46 47 47 48 48 48 48 48 48 49 49 49 49 50 51 52 53 54 55 56 56 56 57 58 58 58
59 59 60 61 62 62 61 60 59 59 58 57 56 55 54 54 54 54 55 55 54 53 52 51 51 51 52 52 53 54 54 54 54 53 51 50 49 48 47 48 48 49 48 48 47 47 47 47 48 48 48 50 50 51 52 53 55 56 57 58 60 61 61
65 64 65 65 65 63 62 62 61 61 60 59 58 57 56 56 56 56 56 57 57 57 57 57 57 57 56 56 56 56 56 56 57 56 54 53 52 50 49 49 49 50 50 49 48 47 47 47 47 47 47 48 48 48 48 48 49 50 52 54 56 59 60
68 68 67 66 64 63 63 63 62 62 61 60 60 59 58 58 58 58 58 58 58 58 58 59 60 60 60 60 60 59 59 59 58 58 57 55 53 51 50 49 50 50 50 50 49 49 48 48 48 48 47 47 47 47 46 46 46 47 49 51 52 53 53
68 68 67 65 64 64 64 63 63 63 63 62 62 61 60 60 59 59 59 59 58 58 58 59 59 59 60 61 61 60 60 59 58 57 55 53 51 50 50 49 50 50 50 50 50 49 48 48 48 47 46 45 45 45 45 45 45 46 47 49 49 48 48
68 68 67 66 66 65 64 64 64 64 64 64 64 63 61 60 59 59 59 59 59 59 59 59 58 58 57 57 57 58 58 59 56 53 51 50 50 49 49 50 51 51 51 51 50 49 48 48 47 46 45 44 44 43 43 43 44 45 47 49 48 46 45
70 70 69 69 68 67 66 66 66 66 66 66 66 64 62 60 59 59 59 59 59 60 60 59 59 58 57 56 56 56 57 57 55 52 51 50 50 50 49 50 52 53 52 51 50 48 47 46 46 45 45 45 44 44 43 42 42 44 46 47 47 46 46
72 72 72 72 71 71 70 69 68 68 68 67 66 65 63 62 61 60 60 59 59 60 61 61 61 60 58 57 56 56 56 56 54 53 54 55 55 51 47 47 51 53 53 52 51 49 48 47 46 46 46 46 45 46 46 45 45 45 46 48 50 52 55
75 75 75 75 75 74 73 72 71 70 69 68 67 66 65 63 62 62 61 61 60 60 61 62 61 60 59 58 56 56 56 56 55 55 56 56 54 47 41 46 52 55 55 54 53 52 51 49 49 48 48 48 48 48 49 50 49 49 50 52 55 58 60
77 77 78 78 77 77 76 75 73 72 71 69 68 67 66 65 64 63 62 62 61 61 62 62 62 61 60 59 58 57 56 57 58 58 58 56 52 47 47 54 58 60 60 58 56 55 53 51 50 50 49 49 49 50 51 51 52 52 53 54 56 57 58
78 79 79 79 79 78 77 76 75 73 72 71 69 68 67 66 66 65 63 63 62 61 63 63 63 63 62 61 61 59 57 58 60 62 62 60 59 58 58 60 60 59 60 61 62 61 59 56 54 53 52 52 52 51 52 52 52 52 53 53 54 55 55
80 80 80 80 80 79 79 78 77 75 74 72 71 70 69 68 67 66 65 65 64 63 63 64 64 64 64 63 63 63 61 61 63 66 66 65 64 63 63 62 62 61 61 62 64 65 65 65 64 63 62 61 60 59 58 57 56 56 56 56 56 56 56
81 81 81 81 80 80 79 78 77 76 75 74 73 71 70 69 67 66 65 65 65 65 65 66 66 66 66 66 66 67 66 65 67 70 71 69 68 67 66 65 65 65 65 65 65 66 66 68 69 70 70 70 69 68 66 64 63 63 62 61 61 60 60
79 78 78 78 78 77 77 76 76 75 75 74 73 71 70 70 69 68 67 67 68 67 68 69 70 70 70 69 69 69 69 69 70 72 73 73 71 70 68 68 68 68 68 68 68 68 69 70 71 72 73 74 74 74 73 72 71 70 70 69 68 67 67
74 73 73 72 72 72 72 71 72 72 72 72 70 69 69 69 69 69 70 70 71 71 72 73 73 74 74 74 73 72 71 71 72 73 75 76 75 74 73 72 72 72 72 72 72 73 73 74 74 74 75 75 76 76 77 77 76 76 76 76 75 74 73
70 70 70 69 68 67 68 67 68 68 68 68 67 66 66 67 67 67 68 69 71 72 72 74 75 76 76 76 76 75 75 74 74 75 76 77 78 78 77 77 76 76 76 76 76 76 76 76 76 76 76 76 77 77 78 78 78 78 77 77 77 76 74
71 71 70 69 68 67 67 67 67 67 67 66 66 65 64 65 65 65 65 66 67 68 69 71 72 73 74 75 75 76 76 77 77 77 78 79 80 80 80 80 80 79 79 78 78 78 78 78 78 78 78 78 78 78 77 77 77 77 76 75 74 73 72
73 74 74 73 71 70 69 69 69 69 68 68 67 66 65 64 64 64 64 65 65 66 66 68 69 70 71 72 73 74 74 76 77 78 79 80 81 81 82 82 81 81 80 80 80 79 80 80 79 79 79 78 77 77 76 75 74 74 73 73 72 72 72
76 76 77 77 76 74 73 72 72 72 72 72 71 70 68 66 66 66 65 65 65 65 65 66 68 69 69 69 70 71 72 72 73 75 76 77 78 79 80 80 80 80 80 79 79 78 78 78 78 78 77 77 76 75 74 73 72 72 72 72 72 72 72
78 78 79 79 79 79 78 76 76 75 75 75 75 74 73 71 70 69 69 67 66 66 66 67 68 69 69 68 69 69 69 69 70 70 71 72 73 74 75 76 77 76 76 76 76 76 75 75 75 76 76 75 75 74 74 73 73 73 72 72 72 73 73
Wind_Direction
273 273 272 271 270 268 267 265 265 264 262 258 256 255 255 256 257 259 260 262 263 265 266 267 268 268 265 261 260 262 265 267 267 266 264 261 257 254 250 248 248 248 250 253 252 254 258 262 265 269 271 272 270 267 264 261 258 256 254 251 249 247 243
273 273 273 273 271 269 267 265 264 264 263 261 259 257 257 256 257 257 258 260 262 264 266 267 268 268 266 263 262 262 262 262 263 263 262 260 256 253 252 251 251 252 253 254 254 255 258 261 264 266 270 271 270 267 265 262 259 257 256 255 252 249 247
273 271 271 270 268 267 266 264 263 263 263 262 261 260 258 258 258 258 259 261 262 264 265 266 266 265 264 262 261 260 259 257 257 258 258 257 255 253 254 255 255 256 256 256 256 258 260 263 265 266 269 271 270 268 267 265 264 262 261 259 256 252 250
273 270 268 267 266 267 267 267 267 266 266 265 265 265 265 264 264 264 264 265 265 265 265 265 264 263 261 259 258 258 257 254 252 251 251 252 253 254 257 258 260 262 262 260 260 262 264 266 268 269 271 272 271 269 268 267 266 266 265 263 261 257 254
272 270 268 267 267 267 268 268 268 268 269 269 269 269 270 270 269 268 267 266 266 265 265 265 264 263 260 257 255 254 254 253 250 248 246 247 250 254 257 260 263 264 263 262 261 263 266 268 269 270 271 271 271 269 268 268 267 266 266 266 265 262 258
268 266 266 266 266 266 267 267 268 269 270 270 270 269 269 270 271 271 269 268 267 266 265 265 264 263 260 257 254 252 252 252 251 249 248 249 251 254 258 261 262 263 263 262 261 262 264 266 267 269 270 270 269 268 267 267 268 268 268 267 267 265 261
266 266 267 266 266 266 267 269 272 273 272 272 272 272 271 272 273 273 273 271 269 268 267 266 265 265 263 260 256 253 251 251 252 253 253 254 256 258 261 264 264 264 263 263 262 262 262 263 265 267 269 269 267 266 265 265 266 267 268 268 267 266 263
270 270 270 268 267 267 268 270 272 273 274 275 276 277 277 276 275 275 275 274 272 270 269 269 268 268 268 267 263 259 255 253 252 253 255 256 258 261 263 264 265 264 262 263 264 264 264 264 265 267 267 267 265 263 263 264 264 265 267 268 268 267 266
272 273 273 272 272 271 270 270 271 272 274 276 277 278 278 278 277 276 275 274 272 269 269 269 270 270 270 269 268 266 263 259 257 256 257 257 259 260 261 261 261 259 258 259 261 263 264 265 265 267 268 267 265 263 263 264 264 264 264 265 266 267 266
274 273 274 274 276 276 275 274 275 276 276 276 276 276 276 277 277 276 276 275 273 269 267 268 269 269 269 268 268 267 266 264 262 261 260 259 260 260 260 260 259 258 257 257 258 260 261 262 263 265 266 267 266 265 263 263 263 263 263 262 262 263 264
274 273 273 274 277 278 278 278 279 278 278 277 276 276 275 275 276 276 277 277 276 273 270 269 268 268 268 268 268 268 268 267 266 265 264 263 262 262 262 262 262 261 261 260 259 260 260 261 263 264 265 266 267 266 265 265 265 264 263 262 260 259 260
270 270 270 272 276 279 279 280 281 281 281 281 280 279 279 279 278 278 279 279 278 277 275 274 273 272 272 271 271 270 270 269 267 266 266 265 265 265 265 264 264 264 264 263 262 261 260 261 262 263 263 264 263 262 262 263 264 264 264 263 261 259 258
265 266 267 270 276 281 281 280 280 282 282 283 283 284 283 283 282 281 280 280 280 279 278 277 277 277 276 275 275 273 272 271 269 267 266 265 265 265 265 265 265 265 265 266 265 264 263 263 263 262 263 263 262 260 259 260 260 261 261 261 260 259 258
262 264 266 267 272 278 281 277 276 278 280 281 282 283 283 282 281 281 281 280 280 279 278 278 278 277 277 276 276 276 274 272 271 269 268 266 266 265 265 264 264 264 265 265 266 266 266 265 265 264 263 264 264 262 262 262 262 262 261 260 259 258 257
262 264 266 268 268 272 278 277 272 273 276 279 281 282 281 280 280 280 280 279 279 279 278 278 278 277 276 276 276 276 276 274 271 270 268 267 266 265 265 265 264 263 263 263 263 264 264 265 264 264 263 263 263 263 262 262 262 262 263 262 261 259 257
264 264 267 269 268 270 276 277 273 270 272 274 277 278 279 279 279 279 279 278 277 278 278 278 277 277 277 277 277 277 277 276 273 271 269 268 266 267 267 267 266 264 263 262 261 261 262 263 264 264 264 263 262 262 262 261 261 261 261 261 260 258 256
265 265 267 269 271 272 274 276 275 272 272 273 273 274 275 276 277 278 277 277 276 276 276 276 276 276 276 276 277 277 278 278 276 274 272 271 269 269 270 270 268 266 264 264 263 263 263 263 263 263 262 262 262 262 262 262 261 261 261 260 260 259 259
264 266 269 272 273 274 274 274 273 272 273 274 274 274 273 273 273 273 274 275 275 275 274 274 273 273 272 273 274 275 276 277 277 276 274 273 273 272 272 271 270 269 267 267 267 266 266 264 263 263 263 263 263 263 262 262 261 261 261 260 260 260 261
265 267 270 273 275 274 273 272 272 272 273 274 274 274 274 273 271 270 269 270 271 271 271 271 271 270 271 271 272 273 274 275 276 276 276 276 275 274 273 271 270 269 269 269 269 269 268 267 266 266 266 266 265 264 263 262 262 261 261 260 260 260 260
265 267 269 271 272 271 271 271 271 272 273 273 274 274 274 274 274 272 271 270 269 269 269 269 269 270 271 271 272 272 273 274 275 276 276 276 276 275 274 272 270 269 269 269 269 269 268 268 268 269 269 268 267 266 264 263 262 262 261 261 260 260 260
263 265 267 267 267 268 269 270 271 272 273 273 274 274 275 275 275 275 274 273 272 271 270 269 269 270 270 271 271 271 272 273 274 275 276 276 276 274 273 272 271 270 269 269 269 269 269 269 270 270 269 268 268 267 265 262 261 261 261 260 259 258 258
263 264 265 265 266 267 269 270 271 273 274 274 275 275 275 275 275 275 274 274 274 273 272 271 270 270 271 271 272 272 272 272 273 274 275 275 274 273 272 272 271 269 269 269 269 269 270 271 271 270 269 269 267 265 264 263 262 262 262 259 256 255 255
263 264 265 266 266 268 269 270 271 272 273 274 275 275 275 275 274 273 273 273 272 272 271 271 270 270 270 270 271 272 272 272 273 273 272 271 271 271 271 271 271 271 270 270 269 269 270 269 269 269 270 270 266 264 265 266 265 264 262 257 252 250 252
264 265 266 267 267 268 269 270 271 272 272 273 274 274 274 273 272 272 272 272 271 270 270 269 268 268 268 268 268 269 270 272 273 272 269 268 267 268 271 274 272 271 270 270 269 268 267 266 266 267 270 270 267 264 265 266 266 265 262 255 249 247 252
267 268 268 269 269 269 269 270 270 271 272 272 273 273 272 272 271 271 270 270 269 268 268 267 267 267 267 267 267 267 267 269 271 271 270 268 267 269 272 271 269 268 267 267 267 266 264 263 263 264 266 267 266 265 265 265 264 263 260 254 250 251 258
268 269 270 270 271 271 271 271 271 271 271 272 272 272 271 271 270 270 270 269 268 267 266 266 266 266 266 265 265 264 264 266 268 269 270 270 271 271 265 259 262 267 267 266 265 264 264 262 261 261 263 264 264 264 265 266 265 263 261 258 257 260 265
268 268 269 270 271 271 272 272 272 272 271 271 271 271 270 270 269 268 268 267 267 266 265 265 265 265 264 263 263 262 262 264 265 265 265 267 268 268 263 262 268 272 273 273 272 270 269 267 265 265 265 265 265 265 267 268 268 267 266 265 265 266 268
266 267 268 269 269 270 271 271 271 271 271 271 270 270 270 269 268 267 265 265 264 263 263 263 263 263 262 262 262 260 259 260 262 262 263 265 266 267 268 269 271 273 275 277 279 279 280 279 278 277 276 275 275 275 275 275 274 273 272 272 271 271 270
265 266 267 267 268 268 269 269 269 269 269 269 269 268 268 268 267 266 264 263 262 261 261 261 261 260 260 260 260 259 257 256 257 259 261 263 264 266 268 269 270 270 271 273 275 278 281 283 284 285 285 285 284 284 284 284 283 282 281 280 279 278 277
265 265 265 266 266 267 267 268 268 269 269 268 268 267 267 266 265 264 263 262 261 260 259 259 259 258 258 258 258 258 258 257 256 257 260 261 262 264 265 267 268 268 269 270 272 274 276 278 281 283 284 285 286 286 287 287 287 287 286 285 284 283 282
264 265 265 265 266 267 267 267 268 268 268 268 268 267 267 265 264 263 262 261 261 260 259 258 258 258 258 257 257 257 258 258 258 258 260 261 262 263 264 265 266 267 268 269 270 271 272 274 275 277 278 280 282 284 286 287 287 288 288 287 287 286 285
265 266 266 266 266 266 267 267 267 267 267 267 267 266 266 265 264 262 262 261 261 260 260 260 259 259 259 258 258 258 258 258 258 259 260 261 262 263 264 264 265 265 266 267 267 269 270 271 272 274 275 276 278 279 281 282 283 284 285 285 285 285 284
266 266 267 267 267 267 267 266 266 266 266 266 265 265 264 264 263 262 261 261 261 261 261 261 260 260 260 260 259 259 258 258 258 259 260 261 262 263 264 265 265 266 266 267 267 268 269 270 271 272 273 274 275 276 277 278 279 280 280 281 281 281 281
267 267 267 266 266 266 266 267 266 266 266 265 265 264 263 263 262 262 261 260 260 260 260 260 260 260 261 260 260 260 259 259 259 259 260 261 262 264 265 266 267 267 268 268 269 270 271 271 272 272 273 274 275 276 276 277 278 278 279 279 279 280 280
268 268 268 268 267 266 266 266 266 266 266 266 265 264 263 262 262 261 260 260 259 259 259 259 259 259 259 259 260 260 259 259 259 259 260 261 262 264 265 266 268 268 269 270 270 271 271 272 273 274 275 275 276 277 277 277 278 278 279 279 280 280 280
266 267 267 267 267 267 266 266 266 266 266 266 265 265 264 263 262 261 260 259 259 259 259 259 259 259 259 259 259 259 260 260 260 261 261 262 263 264 265 267 268 269 269 270 271 271 271 272 273 274 275 276 277 277 278 278 278 279 279 279 280 280 280
263 264 264 265 265 265 265 265 265 264 264 265 265 265 264 264 263 262 261 260 259 258 258 258 258 259 260 260 260 260 261 262 262 263 263 264 264 265 266 267 268 269 270 271 271 272 273 273 274 275 275 276 277 278 278 279 279 279 279 280 280 280 281
Height
10621 10621 10622 10623 10624 10624 10624 10624 10624 10625 10626 10626 10626 10626 10626 10627 10628 10628 10628 10629 10629 10630 10631 10631 10632 10634 10635 10635 10635 10635 10635 10635 10635 10635 10636 10637 10637 10637 10638 10638 10639 10639 10639 10639 10639 10639 10637 10635 10634 10633 10633 10633 10634 10634 10633 10633 10633 10633 10633 10633 10633 10634 10635
10616 10617 10618 10619 10619 10620 10620 10620 10621 10621 10622 10622 10622 10622 10622 10622 10623 10624 10624 10624 10625 10625 10626 10627 10627 10628 10629 10630 10631 10631 10632 10632 10632 10631 10632 10632 10633 10634 10634 10635 10635 10635 10635 10635 10635 10634 10633 10631 10631 10630 10629 10629 10629 10629 10629 10629 10629 10629 10628 10628 10629 10629 10629
10612 10613 10613 10614 10614 10615 10615 10616 10616 10617 10617 10618 10618 10618 10618 10619 10619 10619 10619 10620 10620 10621 10621 10622 10623 10624 10624 10625 10626 10627 10628 10629 10628 10628 10628 10628 10629 10629 10630 10630 10631 10630 10630 10630 10630 10629 10629 10628 10627 10627 10626 10625 10625 10625 10625 10625 10625 10624 10624 10624 10624 10624 10625
10608 10609 10609 10609 10610 10610 10611 10611 10612 10613 10613 10614 10614 10614 10614 10615 10615 10615 10615 10615 10616 10616 10617 10617 10618 10619 10620 10621 10622 10623 10624 10625 10625 10625 10625 10625 10625 10625 10626 10626 10626 10626 10626 10626 10625 10625 10625 10624 10624 10623 10623 10622 10622 10621 10621 10621 10620 10620 10620 10620 10619 10619 10620
10605 10605 10604 10605 10606 10606 10607 10607 10608 10609 10610 10610 10610 10610 10610 10610 10611 10611 10612 10612 10612 10612 10613 10613 10614 10614 10615 10616 10617 10618 10619 10620 10621 10621 10621 10621 10621 10621 10621 10621 10622 10622 10621 10621 10621 10621 10620 10620 10620 10619 10619 10618 10618 10617 10617 10617 10616 10616 10616 10616 10615 10615 10615
10601 10600 10600 10601 10602 10603 10603 10604 10605 10606 10607 10607 10607 10607 10606 10606 10607 10608 10608 10608 10608 10609 10609 10609 10610 10610 10610 10611 10612 10613 10614 10615 10616 10617 10617 10617 10617 10617 10617 10617 10617 10618 10617 10617 10616 10616 10616 10616 10615 10615 10614 10614 10613 10613 10613 10613 10613 10613 10612 10612 10611 10611 10611
10596 10596 10596 10598 10598 10599 10600 10601 10601 10602 10602 10603 10603 10603 10603 10603 10603 10604 10604 10604 10604 10604 10605 10605 10605 10606 10606 10606 10607 10608 10609 10609 10610 10611 10612 10612 10612 10612 10612 10613 10613 10613 10613 10612 10612 10612 10611 10611 10611 10611 10610 10610 10610 10609 10609 10609 10609 10609 10609 10608 10608 10607 10607
10593 10593 10593 10593 10594 10596 10597 10598 10598 10598 10598 10599 10599 10599 10599 10599 10600 10600 10600 10600 10600 10600 10600 10600 10601 10601 10601 10602 10602 10602 10603 10604 10605 10605 10606 10606 10607 10607 10607 10607 10608 10608 10608 10608 10608 10607 10607 10607 10606 10606 10606 10606 10605 10605 10605 10605 10605 10605 10605 10605 10604 10604 10604
10588 10589 10589 10589 10590 10591 10592 10593 10594 10594 10594 10595 10595 10595 10595 10595 10595 10595 10595 10596 10596 10596 10596 10596 10596 10596 10597 10597 10597 10597 10598 10598 10599 10600 10600 10601 10601 10601 10602 10602 10602 10603 10603 10603 10603 10603 10602 10602 10602 10602 10601 10601 10601 10601 10601 10601 10601 10601 10601 10601 10601 10600 10600
10583 10584 10584 10584 10584 10585 10586 10588 10589 10590 10590 10591 10591 10591 10591 10591 10591 10591 10592 10592 10592 10592 10592 10592 10592 10592 10592 10592 10593 10593 10593 10594 10594 10595 10595 10595 10596 10596 10596 10597 10597 10597 10598 10598 10598 10598 10598 10597 10597 10597 10597 10596 10596 10596 10596 10596 10596 10596 10596 10597 10597 10596 10596
10578 10578 10579 10579 10579 10579 10581 10582 10583 10584 10585 10586 10587 10587 10588 10588 10587 10587 10587 10587 10588 10588 10588 10588 10588 10588 10588 10588 10589 10589 10589 10590 10590 10590 10591 10591 10591 10592 10592 10592 10592 10593 10593 10593 10593 10593 10593 10593 10593 10593 10592 10592 10592 10592 10592 10592 10592 10592 10592 10592 10592 10592 10592
10573 10573 10574 10574 10573 10574 10575 10576 10576 10577 10578 10579 10580 10581 10583 10583 10583 10583 10583 10582 10582 10583 10583 10583 10583 10583 10583 10583 10584 10584 10585 10585 10585 10586 10586 10586 10587 10587 10587 10587 10588 10588 10588 10588 10589 10589 10589 10588 10588 10588 10588 10587 10587 10587 10587 10587 10587 10587 10587 10587 10587 10588 10588
10568 10569 10569 10569 10569 10569 10569 10569 10569 10570 10571 10571 10572 10574 10575 10576 10577 10577 10577 10577 10577 10577 10577 10577 10577 10577 10577 10577 10578 10578 10579 10579 10580 10580 10581 10581 10581 10582 10582 10582 10583 10583 10583 10583 10584 10584 10584 10583 10583 10583 10582 10582 10582 10582 10582 10582 10582 10582 10582 10582 10582 10582 10583
10563 10564 10565 10565 10565 10565 10565 10565 10564 10564 10564 10565 10565 10566 10567 10568 10569 10570 10571 10571 10571 10571 10571 10571 10571 10571 10571 10571 10572 10572 10573 10574 10574 10575 10575 10576 10576 10576 10577 10577 10577 10578 10578 10578 10578 10578 10578 10578 10577 10577 10577 10577 10577 10577 10577 10577 10577 10576 10576 10576 10577 10577 10577
10558 10559 10560 10560 10559 10559 10560 10560 10560 10559 10558 10558 10559 10560 10561 10562 10562 10562 10564 10564 10564 10564 10564 10564 10564 10564 10564 10564 10565 10566 10567 10567 10568 10569 10569 10570 10570 10571 10571 10571 10571 10572 10571 10571 10571 10571 10571 10571 10571 10571 10571 10571 10571 10571 10571 10571 10571 10571 10571 10572 10572 10572 10572
10553 10554 10554 10554 10553 10553 10553 10554 10555 10555 10555 10554 10553 10553 10553 10554 10555 10555 10556 10557 10557 10557 10557 10557 10557 10557 10557 10558 10559 10559 10560 10561 10562 10563 10564 10564 10564 10565 10565 10565 10565 10565 10565 10564 10564 10564 10564 10564 10565 10565 10565 10565 10565 10565 10565 10565 10565 10565 10566 10566 10566 10566 10566
10547 10547 10547 10548 10547 10547 10547 10547 10548 10549 10550 10551 10550 10549 10548 10547 10546 10547 10547 10549 10550 10550 10550 10550 10550 10550 10551 10551 10552 10553 10553 10555 10556 10557 10557 10557 10558 10558 10558 10558 10558 10558 10558 10557 10557 10557 10558 10558 10558 10558 10558 10558 10558 10558 10558 10558 10558 10558 10559 10559 10559 10559 10559
10541 10540 10540 10540 10541 10541 10541 10541 10542 10543 10544 10545 10545 10545 10545 10543 10541 10540 10539 10540 10541 10542 10543 10543 10544 10544 10544 10544 10545 10545 10546 10547 10549 10549 10550 10550 10550 10551 10551 10551 10551 10551 10550 10550 10551 10551 10550 10550 10550 10550 10550 10550 10551 10551 10551 10551 10551 10551 10552 10551 10551 10551 10551
10535 10534 10533 10533 10534 10534 10534 10534 10535 10536 10537 10538 10538 10539 10539 10539 10537 10536 10535 10535 10535 10535 10536 10536 10536 10536 10536 10537 10537 10538 10539 10540 10541 10541 10542 10543 10543 10544 10544 10544 10544 10543 10543 10543 10543 10543 10543 10542 10543 10543 10544 10543 10543 10543 10543 10543 10543 10543 10544 10544 10543 10543 10543
10527 10527 10527 10527 10527 10527 10527 10528 10528 10529 10530 10530 10531 10531 10531 10531 10530 10530 10530 10530 10530 10530 10530 10530 10530 10529 10529 10529 10530 10530 10531 10531 10532 10533 10534 10535 10536 10536 10537 10537 10537 10536 10536 10536 10536 10536 10535 10535 10536 10536 10536 10536 10536 10536 10536 10536 10535 10535 10536 10535 10535 10534 10535
10520 10520 10521 10521 10520 10520 10520 10520 10520 10521 10521 10522 10523 10524 10524 10523 10522 10522 10521 10522 10522 10523 10523 10523 10523 10523 10522 10522 10522 10522 10523 10524 10524 10525 10526 10527 10528 10529 10529 10529 10529 10529 10529 10528 10529 10529 10529 10529 10529 10528 10528 10528 10528 10528 10528 10528 10528 10528 10528 10528 10527 10527 10528
10512 10513 10513 10514 10514 10513 10513 10513 10513 10512 10512 10513 10514 10516 10517 10516 10515 10514 10513 10513 10514 10514 10514 10515 10516 10516 10514 10513 10513 10514 10515 10516 10517 10518 10519 10519 10520 10521 10522 10522 10521 10521 10521 10521 10521 10522 10522 10522 10521 10521 10521 10521 10521 10521 10521 10521 10521 10521 10521 10521 10521 10520 10522
10504 10504 10504 10505 10505 10505 10506 10505 10505 10505 10504 10505 10506 10507 10509 10509 10508 10507 10506 10506 10506 10506 10506 10507 10508 10508 10508 10506 10505 10505 10505 10507 10510 10512 10513 10513 10513 10514 10515 10515 10514 10513 10514 10514 10514 10515 10515 10515 10514 10514 10513 10514 10514 10515 10515 10515 10514 10515 10515 10515 10515 10515 10516
10496 10495 10495 10495 10496 10497 10497 10497 10497 10497 10497 10497 10498 10499 10500 10501 10500 10500 10499 10500 10499 10498 10499 10500 10500 10501 10502 10501 10500 10499 10498 10498 10501 10503 10505 10506 10507 10508 10509 10509 10507 10506 10506 10506 10506 10508 10508 10507 10507 10507 10507 10507 10507 10508 10508 10508 10508 10508 10509 10509 10509 10509 10510
10487 10487 10486 10486 10486 10487 10487 10488 10489 10489 10489 10489 10490 10491 10491 10492 10492 10492 10492 10493 10492 10492 10492 10492 10493 10494 10496 10495 10494 10493 10491 10491 10493 10494 10495 10496 10498 10503 10505 10503 10500 10499 10499 10498 10499 10500 10501 10501 10501 10501 10501 10501 10501 10501 10501 10501 10502 10502 10502 10503 10503 10503 10502
10477 10477 10477 10477 10477 10477 10477 10478 10480 10480 10481 10481 10481 10482 10482 10483 10484 10484 10484 10484 10485 10485 10484 10484 10485 10488 10488 10488 10488 10487 10485 10485 10486 10486 10485 10486 10489 10495 10497 10494 10491 10491 10492 10492 10492 10492 10493 10494 10494 10494 10495 10494 10494 10494 10494 10494 10495 10495 10495 10495 10496 10496 10495
10467 10467 10467 10467 10467 10467 10468 10469 10470 10471 10472 10472 10473 10473 10473 10474 10475 10476 10476 10476 10477 10478 10477 10476 10478 10479 10479 10479 10480 10480 10480 10479 10478 10477 10477 10479 10482 10484 10485 10483 10482 10482 10482 10482 10482 10483 10484 10485 10485 10486 10486 10486 10487 10487 10487 10487 10487 10487 10487 10487 10487 10487 10486
10458 10458 10457 10458 10458 10458 10458 10459 10460 10461 10463 10464 10464 10464 10464 10465 10465 10466 10467 10467 10469 10470 10468 10468 10469 10470 10470 10471 10471 10472 10473 10471 10468 10467 10469 10471 10472 10472 10473 10473 10472 10472 10471 10471 10470 10470 10471 10473 10473 10474 10475 10476 10476 10477 10477 10477 10477 10477 10477 10477 10477 10477 10476
10448 10448 10448 10448 10448 10448 10448 10449 10450 10451 10453 10454 10455 10455 10455 10456 10456 10457 10457 10458 10460 10461 10460 10459 10459 10460 10461 10462 10462 10462 10464 10463 10460 10458 10460 10462 10463 10463 10463 10463 10464 10464 10464 10463 10462 10462 10461 10461 10461 10462 10463 10464 10464 10465 10465 10465 10465 10466 10466 10466 10465 10465 10465
10436 10437 10437 10437 10438 10438 10438 10439 10439 10440 10442 10443 10445 10446 10446 10447 10448 10448 10448 10448 10449 10451 10451 10450 10450 10450 10451 10452 10452 10452 10454 10455 10453 10450 10450 10452 10454 10454 10455 10455 10455 10455 10455 10455 10456 10455 10455 10454 10454 10453 10453 10453 10453 10454 10454 10454 10455 10455 10455 10455 10455 10454 10454
10425 10426 10426 10426 10427 10427 10428 10429 10429 10430 10431 10432 10433 10435 10436 10437 10438 10438 10438 10438 10439 10440 10441 10441 10440 10440 10441 10442 10443 10443 10444 10446 10445 10443 10442 10443 10445 10446 10447 10447 10446 10446 10447 10447 10447 10447 10447 10447 10447 10446 10446 10445 10445 10445 10445 10445 10445 10445 10445 10445 10445 10444 10444
10415 10415 10416 10416 10417 10417 10418 10419 10420 10420 10420 10421 10423 10425 10426 10426 10427 10428 10428 10429 10429 10429 10430 10430 10431 10431 10431 10432 10433 10434 10435 10436 10436 10435 10435 10435 10436 10437 10438 10438 10438 10438 10438 10439 10439 10439 10439 10439 10438 10438 10438 10437 10438 10438 10437 10437 10437 10437 10436 10436 10436 10435 10435
10406 10406 10406 10406 10408 10408 10408 10409 10410 10410 10410 10411 10413 10415 10416 10416 10417 10418 10418 10419 10419 10420 10420 10420 10420 10420 10421 10422 10423 10424 10425 10426 10427 10427 10426 10426 10427 10428 10428 10429 10429 10429 10429 10430 10430 10430 10430 10430 10429 10429 10428 10428 10429 10430 10429 10429 10428 10428 10429 10428 10427 10426 10425
10396 10395 10395 10396 10398 10398 10399 10399 10399 10400 10400 10401 10402 10404 10406 10407 10407 10408 10409 10409 10410 10410 10411 10411 10410 10411 10411 10412 10413 10414 10415 10416 10417 10417 10417 10417 10417 10418 10418 10419 10419 10419 10420 10420 10420 10420 10420 10420 10419 10419 10419 10419 10419 10419 10419 10419 10419 10418 10418 10418 10417 10416 10414
10385 10384 10384 10385 10387 10388 10389 10390 10390 10389 10390 10390 10391 10393 10395 10397 10398 10398 10399 10400 10400 10401 10402 10402 10401 10401 10402 10402 10402 10403 10404 10405 10406 10407 10407 10408 10408 10408 10409 10409 10409 10409 10410 10410 10410 10410 10410 10409 10409 10409 10409 10409 10409 10409 10409 10409 10408 10408 10407 10407 10406 10404 10403
10374 10374 10373 10373 10375 10377 10379 10380 10380 10380 10380 10380 10381 10382 10384 10387 10388 10388 10389 10390 10391 10392 10392 10392 10392 10392 10392 10393 10393 10393 10394 10395 10396 10397 10398 10399 10399 10399 10399 10399 10399 10399 10399 10400 10399 10399 10399 10400 10400 10400 10399 10399 10399 10399 10399 10399 10398 10398 10397 10396 10395 10393 10392
10362 10363 10362 10362 10363 10364 10366 10368 10369 10370 10370 10370 10371 10372 10373 10375 10377 10377 10378 10380 10381 10383 10383 10382 10382 10382 10383 10384 10385 10385 10386 10386 10387 10388 10389 10389 10390 10390 10390 10389 10389 10389 10389 10390 10389 10389 10390 10390 10390 10390 10389 10389 10389 10389 10389 10388 10388 10387 10387 10386 10385 10383 10382